Date,TemperatureHighF,TemperatureAvgF,TemperatureLowF,DewpointHighF,DewpointAvgF,DewpointLowF,HumidityHigh,HumidityAvg,HumidityLow,PressureMaxIn,PressureMinIn,WindSpeedMaxMPH,WindSpeedAvgMPH,GustSpeedMaxMPH,PrecipitationSumIn
2013-5-1,74.1,62.4,57.6,55.9,50.5,48.4,74,66,52,30.28,30.16,4,2,12,0.00
2013-5-2,81.6,72.8,63.3,48.3,41.5,33.7,44,33,18,30.36,30.19,4,2,14,0.00
2013-5-3,80.6,66.5,53.2,48.3,42.5,38.0,59,43,30,30.23,30.12,4,1,13,0.00
2013-5-4,73.3,59.7,49.5,43.8,40.4,36.1,71,51,28,30.23,30.12,3,1,11,0.00
2013-5-5,78.5,64.5,46.2,49.1,44.3,40.3,82,52,28,30.17,30.01,5,2,16,0.00
2013-5-7,79.7,71.5,64.4,54.9,52.4,49.7,62,52,36,29.99,29.95,5,2,16,0.00
2013-5-8,70.3,62.5,55.7,60.5,54.0,48.5,90,74,60,29.99,29.90,2,0,9,0.13
2013-5-9,64.2,58.5,52.1,58.5,54.7,48.2,94,87,71,29.94,29.85,4,1,10,0.28
2013-5-10,76.9,59.7,47.3,61.8,54.3,44.8,93,83,57,29.93,29.69,6,2,19,0.46
2013-5-11,60.3,50.3,47.1,57.6,46.4,42.6,92,87,76,29.77,29.65,7,4,19,0.13
2013-5-12,51.4,43.7,38.7,46.9,36.3,30.3,88,75,58,29.96,29.69,11,5,26,0.22
2013-5-13,47.3,41.4,35.1,36.5,32.7,29.6,81,71,62,30.15,29.95,7,4,20,0.00
2013-5-14,58.9,48.7,34.5,40.3,34.2,30.1,88,60,36,30.16,29.90,4,2,12,0.00
2013-5-15,77.0,61.8,51.5,58.2,48.2,40.6,74,62,41,29.90,29.53,11,3,26,0.00
2013-5-16,74.1,62.8,50.1,52.7,46.6,33.1,86,58,27,30.00,29.71,6,2,17,0.00
2013-5-17,67.4,55.8,40.8,46.9,41.2,36.7,89,60,42,30.19,29.99,3,1,14,0.00
2013-5-18,74.6,63.5,55.0,49.9,44.1,38.6,58,50,38,30.21,30.08,5,2,14,0.00
2013-5-19,85.2,70.6,54.2,63.6,57.1,46.4,89,64,45,30.09,29.92,4,1,10,0.00
2013-5-20,88.4,76.1,63.2,67.3,62.9,57.8,85,65,44,29.99,29.80,6,1,18,0.00
2013-5-21,87.9,75.0,65.6,69.3,63.5,57.6,84,69,51,29.90,29.70,5,2,17,0.01
2013-5-22,87.1,74.4,63.4,66.6,63.1,59.2,91,70,46,29.75,29.60,6,2,17,0.14
2013-5-23,71.7,63.1,45.3,62.8,57.2,42.2,92,81,67,29.90,29.65,6,3,21,0.43
2013-5-24,52.1,44.4,39.8,42.1,36.7,35.0,90,75,55,30.24,29.91,5,3,16,0.12
2013-5-25,59.5,50.6,39.9,38.7,36.1,33.8,86,59,42,30.26,30.18,6,3,17,0.00
2013-5-26,64.8,53.6,44.0,45.1,38.2,32.0,87,58,30,30.23,30.16,6,2,17,0.00
2013-5-27,73.4,58.1,38.2,46.3,39.3,32.7,96,56,26,30.27,30.10,3,1,10,0.00
2013-5-28,65.4,59.7,53.1,62.3,53.4,39.9,93,81,51,30.13,29.88,4,1,15,1.75
2013-5-29,78.7,69.5,64.1,63.9,61.5,58.7,93,77,58,29.99,29.85,7,3,18,0.41
2013-5-30,84.2,73.4,60.3,67.4,62.5,56.5,91,70,56,30.09,29.99,5,2,16,0.00
2013-5-31,87.8,76.4,62.6,67.5,63.6,59.3,91,67,45,30.03,29.89,6,2,19,0.01